| time (UTC) | temp F | wind direction | speed MPH | gust MPH | rain 1hr in | rain 24hr in | rain mn in | humidity % | barometer mb |
| 20260901091614 | 79 | 155 | 9.0 | 15.0 | 0.00 | 0.00 | 0.00 | 52 | 1018.1 |
| 20260901090104 | 80 | 169 | 10.0 | 16.0 | 0.00 | 0.00 | 0.00 | 51 | 1018.2 |
| 20260901084604 | 80 | 165 | 9.0 | 14.0 | 0.00 | 0.00 | 0.00 | 52 | 1018.2 |
| 20260901083106 | 80 | 160 | 9.0 | 15.0 | 0.00 | 0.00 | 0.00 | 51 | 1018.0 |
| 20260901081606 | 80 | 161 | 10.0 | 14.0 | 0.00 | 0.00 | 0.00 | 51 | 1018.0 |
| 20260901080104 | 80 | 155 | 8.0 | 16.0 | 0.00 | 0.00 | 0.00 | 51 | 1017.7 |
| 20260901074558 | 79 | 143 | 9.0 | 15.0 | 0.00 | 0.00 | 0.00 | 50 | 1017.8 |
| 20260901073107 | 79 | 141 | 10.0 | 15.0 | 0.00 | 0.00 | 0.00 | 49 | 1017.7 |
| 20260901071604 | 79 | 140 | 7.0 | 10.0 | 0.00 | 0.00 | 0.00 | 48 | 1017.8 |
| 20260901070109 | 80 | 140 | 8.0 | 11.0 | 0.00 | 0.00 | 0.00 | 47 | 1017.8 |
| 20260901064609 | 81 | 141 | 6.0 | 9.0 | 0.00 | 0.00 | 0.00 | 46 | 1017.7 |
| 20260901063102 | 82 | 154 | 6.0 | 10.0 | 0.00 | 0.00 | 0.00 | 44 | 1017.8 |
| 20260901061610 | 82 | 153 | 6.0 | 10.0 | 0.00 | 0.00 | 0.00 | 43 | 1017.8 |
| 20260901060107 | 82 | 151 | 6.0 | 10.0 | 0.00 | 0.00 | 0.00 | 42 | 1017.8 |
| 20260901054608 | 83 | 154 | 7.0 | 11.0 | 0.00 | 0.00 | 0.00 | 42 | 1017.8 |
| 20260901053119 | 83 | 160 | 7.0 | 10.0 | 0.00 | 0.00 | 0.00 | 41 | 1017.8 |
| 20260901051610 | 84 | 160 | 8.0 | 12.0 | 0.00 | 0.00 | 0.00 | 41 | 1017.7 |
| 20260901050108 | 84 | 165 | 7.0 | 12.0 | 0.00 | 0.00 | 0.00 | 40 | 1017.6 |
| 20260901044621 | 85 | 165 | 9.0 | 12.0 | 0.00 | 0.00 | 0.00 | 40 | 1017.4 |
| 20260901043102 | 85 | 165 | 8.0 | 13.0 | 0.00 | 0.00 | 0.00 | 39 | 1017.3 |
| 20260901041602 | 85 | 152 | 9.0 | 14.0 | 0.00 | 0.00 | 0.00 | 38 | 1017.3 |
| 20260901040111 | 86 | 153 | 10.0 | 15.0 | 0.00 | 0.00 | 0.00 | 38 | 1017.3 |
| 20260901034607 | 86 | 159 | 12.0 | 19.0 | 0.00 | 0.00 | 0.00 | 37 | 1017.3 |
| 20260901033102 | 87 | 150 | 10.0 | 17.0 | 0.00 | 0.00 | 0.00 | 36 | 1017.2 |
| 20260901031604 | 87 | 146 | 12.0 | 18.0 | 0.00 | 0.00 | 0.00 | 36 | 1016.6 |
| 20260901030104 | 88 | 135 | 13.0 | 18.0 | 0.00 | 0.00 | 0.00 | 35 | 1016.4 |
| 20260901024625 | 88 | 148 | 13.0 | 18.0 | 0.00 | 0.00 | 0.00 | 33 | 1016.2 |
| 20260901023105 | 89 | 149 | 14.0 | 18.0 | 0.00 | 0.00 | 0.00 | 32 | 1015.8 |
| 20260901021604 | 89 | 119 | 11.0 | 16.0 | 0.00 | 0.00 | 0.00 | 30 | 1015.5 |
| 20260901020104 | 89 | 134 | 12.0 | 17.0 | 0.00 | 0.00 | 0.00 | 30 | 1015.2 |
| 20260901014604 | 90 | 124 | 13.0 | 18.0 | 0.00 | 0.00 | 0.00 | 30 | 1015.1 |
| 20260901013101 | 90 | 119 | 13.0 | 20.0 | 0.00 | 0.00 | 0.00 | 31 | 1014.9 |
| 20260901011607 | 91 | 128 | 14.0 | 20.0 | 0.00 | 0.00 | 0.00 | 30 | 1015.0 |
| 20260901010104 | 91 | 126 | 16.0 | 21.0 | 0.00 | 0.00 | 0.00 | 30 | 1014.9 |
| 20260901004607 | 92 | 120 | 15.0 | 21.0 | 0.00 | 0.00 | 0.00 | 30 | 1015.2 |
| 20260901003110 | 92 | 120 | 15.0 | 24.0 | 0.00 | 0.00 | 0.00 | 30 | 1015.0 |
| 20260901001602 | 93 | 126 | 14.0 | 21.0 | 0.00 | 0.00 | 0.00 | 30 | 1015.2 |
| 20260901000107 | 93 | 139 | 18.0 | 24.0 | 0.00 | 0.00 | 0.00 | 30 | 1015.2 |
| 20260831234606 | 93 | 112 | 17.0 | 25.0 | 0.00 | 0.00 | 0.00 | 30 | 1015.3 |
| 20260831233107 | 93 | 103 | 16.0 | 24.0 | 0.00 | 0.00 | 0.00 | 31 | 1015.3 |
| 20260831231606 | 94 | 112 | 17.0 | 24.0 | 0.00 | 0.00 | 0.00 | 30 | 1015.0 |
| 20260831230111 | 94 | 105 | 16.0 | 25.0 | 0.00 | 0.00 | 0.00 | 31 | 1015.0 |
| 20260831224607 | 94 | 106 | 10.0 | 19.0 | 0.00 | 0.00 | 0.00 | 30 | 1015.0 |
| 20260831223113 | 95 | 98 | 13.0 | 25.0 | 0.00 | 0.00 | 0.00 | 30 | 1015.1 |
| 20260831221600 | 94 | 149 | 8.0 | 20.0 | 0.00 | 0.00 | 0.00 | 30 | 1015.6 |
| 20260831220109 | 94 | 116 | 10.0 | 23.0 | 0.00 | 0.00 | 0.00 | 30 | 1015.9 |
| 20260831214628 | 95 | 101 | 15.0 | 23.0 | 0.00 | 0.00 | 0.00 | 30 | 1016.0 |
| 20260831213113 | 95 | 91 | 10.0 | 24.0 | 0.00 | 0.00 | 0.00 | 31 | 1016.1 |
| 20260831211603 | 93 | 98 | 13.0 | 24.0 | 0.00 | 0.00 | 0.00 | 32 | 1016.4 |
| 20260831210103 | 94 | 120 | 13.0 | 19.0 | 0.00 | 0.00 | 0.00 | 30 | 1016.6 |
| 20260831204604 | 94 | 87 | 13.0 | 19.0 | 0.00 | 0.00 | 0.00 | 30 | 1016.8 |
| 20260831203103 | 94 | 164 | 10.0 | 19.0 | 0.00 | 0.00 | 0.00 | 30 | 1016.9 |
| 20260831201606 | 93 | 137 | 9.0 | 18.0 | 0.00 | 0.00 | 0.00 | 31 | 1017.2 |
| 20260831200114 | 93 | 122 | 9.0 | 19.0 | 0.00 | 0.00 | 0.00 | 31 | 1017.3 |
| 20260831194604 | 92 | 136 | 9.0 | 13.0 | 0.00 | 0.00 | 0.00 | 31 | 1017.5 |
| 20260831193101 | 92 | 192 | 2.0 | 12.0 | 0.00 | 0.00 | 0.00 | 34 | 1017.4 |
| 20260831191606 | 91 | 113 | 10.0 | 20.0 | 0.00 | 0.00 | 0.00 | 34 | 1017.6 |
| 20260831190115 | 91 | 202 | 8.0 | 18.0 | 0.00 | 0.00 | 0.00 | 35 | 1017.7 |
| 20260831184604 | 91 | 191 | 11.0 | 19.0 | 0.00 | 0.00 | 0.00 | 39 | 1018.0 |
| 20260831183105 | 90 | 128 | 12.0 | 21.0 | 0.00 | 0.00 | 0.00 | 39 | 1018.1 |
| 20260831181609 | 89 | 129 | 11.0 | 16.0 | 0.00 | 0.00 | 0.00 | 43 | 1018.2 |
| 20260831180110 | 88 | 190 | 12.0 | 21.0 | 0.00 | 0.00 | 0.00 | 44 | 1018.4 |
| 20260831174608 | 87 | 148 | 12.0 | 20.0 | 0.00 | 0.00 | 0.00 | 46 | 1018.4 |
| 20260831173101 | 87 | 126 | 7.0 | 17.0 | 0.00 | 0.00 | 0.00 | 48 | 1018.8 |
| 20260831171606 | 86 | 134 | 13.0 | 19.0 | 0.00 | 0.00 | 0.00 | 50 | 1019.0 |
| 20260831170104 | 85 | 175 | 11.0 | 18.0 | 0.00 | 0.00 | 0.00 | 50 | 1019.3 |
| 20260831164608 | 85 | 150 | 9.0 | 20.0 | 0.00 | 0.00 | 0.00 | 53 | 1019.3 |
| 20260831163105 | 85 | 172 | 9.0 | 19.0 | 0.00 | 0.00 | 0.00 | 54 | 1019.0 |
| 20260831161609 | 83 | 142 | 10.0 | 19.0 | 0.00 | 0.00 | 0.00 | 57 | 1019.0 |
| 20260831160106 | 83 | 186 | 8.0 | 14.0 | 0.00 | 0.00 | 0.00 | 57 | 1018.7 |
| 20260831154635 | 82 | 138 | 12.0 | 18.0 | 0.00 | 0.00 | 0.00 | 60 | 1018.8 |
| 20260831153110 | 81 | 148 | 10.0 | 17.0 | 0.00 | 0.00 | 0.00 | 61 | 1018.9 |
| 20260831151607 | 80 | 167 | 12.0 | 22.0 | 0.00 | 0.00 | 0.00 | 62 | 1018.9 |
| 20260831150110 | 79 | 171 | 10.0 | 18.0 | 0.00 | 0.00 | 0.00 | 64 | 1018.7 |
| 20260831144607 | 79 | 144 | 12.0 | 20.0 | 0.00 | 0.00 | 0.00 | 65 | 1018.5 |
| 20260831143110 | 78 | 169 | 13.0 | 21.0 | 0.00 | 0.00 | 0.00 | 66 | 1018.5 |
| 20260831141604 | 78 | 138 | 14.0 | 19.0 | 0.00 | 0.00 | 0.00 | 67 | 1018.4 |
| 20260831134605 | 76 | 140 | 13.0 | 19.0 | 0.00 | 0.00 | 0.00 | 68 | 1018.3 |
| 20260831133106 | 76 | 147 | 12.0 | 16.0 | 0.00 | 0.00 | 0.00 | 68 | 1018.1 |
| 20260831131604 | 75 | 146 | 10.0 | 15.0 | 0.00 | 0.00 | 0.00 | 67 | 1017.8 |
| 20260831130115 | 75 | 157 | 10.0 | 15.0 | 0.00 | 0.00 | 0.00 | 67 | 1017.6 |
| 20260831124604 | 75 | 155 | 10.0 | 14.0 | 0.00 | 0.00 | 0.00 | 67 | 1017.4 |
| 20260831123105 | 75 | 169 | 10.0 | 14.0 | 0.00 | 0.00 | 0.00 | 66 | 1017.3 |
| 20260831121601 | 75 | 150 | 10.0 | 16.0 | 0.00 | 0.00 | 0.00 | 65 | 1017.4 |
| 20260831120113 | 76 | 150 | 11.0 | 17.0 | 0.00 | 0.00 | 0.00 | 64 | 1017.3 |
| 20260831114612 | 76 | 157 | 10.0 | 18.0 | 0.00 | 0.00 | 0.00 | 63 | 1017.3 |
| 20260831113134 | 76 | 155 | 11.0 | 19.0 | 0.00 | 0.00 | 0.00 | 62 | 1017.2 |
| 20260831111604 | 77 | 144 | 11.0 | 18.0 | 0.00 | 0.00 | 0.00 | 60 | 1017.3 |
| 20260831110106 | 77 | 154 | 11.0 | 18.0 | 0.00 | 0.00 | 0.00 | 59 | 1017.1 |
| 20260831104605 | 77 | 157 | 13.0 | 18.0 | 0.00 | 0.00 | 0.00 | 58 | 1016.9 |
| 20260831103116 | 78 | 164 | 13.0 | 20.0 | 0.00 | 0.00 | 0.00 | 56 | 1017.1 |
| 20260831101609 | 78 | 156 | 12.0 | 19.0 | 0.00 | 0.00 | 0.00 | 55 | 1016.9 |
| 20260831100114 | 78 | 169 | 11.0 | 21.0 | 0.00 | 0.00 | 0.00 | 54 | 1016.8 |
| 20260831094619 | 79 | 161 | 13.0 | 21.0 | 0.00 | 0.00 | 0.00 | 53 | 1017.0 |
| 20260831093113 | 79 | 161 | 14.0 | 24.0 | 0.00 | 0.00 | 0.00 | 52 | 1016.8 |